ARKSAT 1 (56311 NORAD) Tracking and Keplerian Element Data

This shows tracking and keplerian element data for the satellite.

Feedback or suggestion? Click here.




ElementValue
Catalog56311
NameARKSAT 1
Epoch Orbit197
Epoch Day127.10774137
Epoch Year2023
RAAN171.9812
Inclination51.6376
Eccentricity0.0007994
Argument of Perigee319.4106
Mean Anonmoly40.6287
Mean Motion15.52387181
Decay Rate0.00063406
L11 56311U 98067VC 23127.10774137 .00063406 00000+0 10185-2 0 9996
L22 56311 51.6376 171.9812 0007994 319.4106 40.6287 15.52387181 1973



Live tracking and technical data element details for ARKSAT 1 (NORAD 56311). ARKSAT 1 can be tracked NOW for your location showing map with azimuth and elevation plus other details from your city location.







IsCatalogInMostPopularTable: catalog: 56311, numindb: 5
Update: records affected: 1



GetName: 56311 ARKSAT 1

Hit Count: updated at: Wed, 07 Jun 2023 08:28:43 GMT